Temperature
17 17 17 18 18 18 18 18 18 18 18 17 17 17 17 16 16 15 15 14 14 13 13 12 12 12 12 12 12 12 12 12 11 11 11 10 10 9 9 8 8 7 7
17 17 17 17 17 17 17 18 18 18 18 17 17 17 18 17 17 16 15 14 14 13 13 12 12 12 12 12 12 12 12 11 11 11 11 10 9 9 8 8 7 7 6
15 16 17 17 17 17 17 17 17 17 17 17 17 17 17 16 16 16 15 15 14 14 13 13 12 12 12 12 12 12 12 11 11 11 11 10 10 9 8 8 7 6 6
16 16 16 16 17 17 17 17 17 17 17 17 17 16 16 16 16 16 16 15 15 14 14 13 13 12 12 12 12 11 11 11 11 11 10 10 10 9 8 7 7 6 6
17 17 16 16 16 16 16 16 16 17 17 17 16 16 16 16 16 16 16 16 15 15 14 13 13 12 12 12 11 11 11 11 11 10 10 9 9 8 8 7 7 6 5
16 16 16 16 16 16 16 16 16 16 16 16 16 16 16 16 16 16 16 16 15 15 14 13 13 12 12 11 11 11 11 10 10 10 9 9 8 8 7 6 6 5 5
15 15 15 15 15 15 15 16 16 16 16 16 16 16 16 16 16 16 16 16 15 15 14 13 12 12 11 11 11 10 10 10 9 9 8 8 7 7 6 5 4 3 4
13 13 14 14 14 14 14 15 15 15 15 15 16 15 15 15 16 16 16 16 15 15 15 13 12 11 11 10 10 10 9 9 8 8 7 7 6 6 5 4 3 2 2
12 12 12 12 13 13 14 14 14 14 15 15 15 15 15 15 15 15 15 15 15 14 13 12 11 11 10 10 9 9 8 8 7 7 6 6 5 4 4 3 2 1 -1
11 11 11 11 11 12 12 13 13 14 14 14 14 14 14 14 14 14 14 14 14 13 12 11 10 10 9 8 8 8 7 7 6 6 5 5 4 3 3 2 1 -0 -1
10 10 10 10 10 11 11 12 13 13 13 13 13 13 13 13 13 13 13 13 12 11 10 10 9 8 8 7 7 6 6 6 5 5 4 4 3 2 2 1 0 -1 -2
9 9 9 9 9 10 11 11 12 12 12 12 12 12 12 12 12 12 12 11 11 10 9 9 8 7 6 6 5 5 5 4 4 3 3 2 2 1 1 0 -1 -1 -2
8 8 8 8 8 9 10 10 11 11 11 11 11 11 11 11 11 11 10 10 9 9 8 7 6 5 5 4 4 3 3 3 3 2 2 1 0 0 -0 -1 -2 -2 -3
6 7 7 7 7 8 9 9 10 10 10 10 10 10 10 10 10 10 9 9 8 7 6 5 5 4 4 3 3 2 2 2 1 1 0 -0 -1 -1 -2 -2 -3 -4 -5
5 6 6 7 7 7 8 8 8 8 8 9 9 9 9 9 8 8 7 7 6 5 4 4 3 3 2 2 2 2 1 1 1 -0 -1 -1 -1 -2 -3 -4 -5 -6 -6
4 5 5 6 6 6 6 7 7 7 7 7 7 7 6 6 6 5 5 4 3 3 2 2 2 2 1 1 1 1 1 0 -0 -1 -1 -2 -2 -3 -3 -5 -6 -7 -7
3 3 4 5 5 5 5 5 5 5 5 5 4 4 4 4 3 3 3 2 1 1 1 1 1 1 1 1 1 0 -0 -1 -1 -2 -2 -2 -3 -4 -5 -5 -6 -7 -8
2 2 3 3 4 4 4 4 4 4 4 3 3 2 2 2 1 1 1 0 0 0 0 1 1 1 1 0 -0 -1 -1 -2 -2 -2 -3 -4 -4 -5 -6 -7 -8 -8 -8
1 1 2 2 2 2 3 3 3 2 2 2 1 1 1 1 0 0 -0 -0 0 0 0 0 0 -0 -1 -1 -1 -2 -2 -3 -3 -3 -4 -5 -6 -6 -7 -9 -9 -9 -8
1 1 1 1 1 1 1 1 1 1 1 0 0 0 0 0 0 -0 -0 0 0 0 -0 -0 -1 -1 -2 -2 -3 -3 -3 -4 -4 -4 -5 -6 -7 -8 -9 -9 -9 -9 -9
0 0 0 0 0 -0 0 0 -0 -0 -0 -0 -0 -0 -0 0 0 0 -0 -0 -0 -1 -1 -1 -2 -2 -2 -3 -4 -5 -6 -6 -6 -6 -6 -6 -7 -8 -9 -9 -9 -9 -9
0 0 0 0 -0 -0 -0 -0 -0 -0 -0 -0 -0 0 -0 -0 -0 -0 -1 -1 -1 -1 -2 -2 -2 -3 -3 -4 -5 -5 -6 -7 -8 -8 -7 -8 -9 -9 -9 -9 -9 -9 -9
1 1 1 0 0 0 1 1 0 0 0 0 0 -0 -0 -1 -1 -1 -1 -1 -2 -2 -2 -3 -3 -4 -4 -5 -5 -6 -7 -7 -8 -9 -9 -9 -10 -10 -9 -9 -9 -9 -9
2 1 1 1 1 1 1 1 1 0 0 0 -0 -1 -1 -1 -1 -2 -2 -2 -2 -2 -3 -3 -4 -4 -5 -5 -6 -7 -8 -8 -9 -9 -9 -9 -9 -9 -9 -9 -9 -9 -9
2 2 2 2 2 1 1 1 1 0 0 -0 -1 -1 -1 -1 -1 -2 -2 -2 -2 -3 -3 -4 -4 -5 -6 -7 -8 -9 -9 -10 -10 -10 -9 -9 -9 -9 -8 -8 -8 -8 -8
2 3 3 2 2 1 1 0 0 0 0 -0 -1 -1 -1 -1 -2 -2 -2 -3 -3 -4 -5 -5 -6 -8 -8 -9 -9 -9 -10 -10 -10 -10 -9 -9 -9 -9 -9 -9 -8 -8 -8
Wind_Speed
14 11 10 10 10 10 10 11 13 15 14 12 12 12 13 11 11 9 13 16 16 18 14 9 9 9 8 8 8 5 4 2 2 3 2 3 2 1 1 3 4 4 6
13 12 11 10 9 10 10 10 12 13 14 14 14 12 13 11 11 10 11 16 17 18 15 13 12 10 9 9 7 6 4 2 2 3 3 1 2 2 1 1 2 2 2
17 14 12 12 11 10 11 10 11 12 13 13 9 6 4 3 5 8 11 12 16 17 16 14 13 11 11 11 9 7 7 5 2 2 4 4 5 2 2 2 1 1 2
14 12 11 11 11 11 10 10 10 10 12 12 11 12 11 10 10 11 10 10 12 15 17 16 14 14 11 11 10 7 5 6 4 2 1 2 3 3 1 2 2 1 1
9 9 9 9 9 9 8 8 9 9 10 12 15 16 14 11 7 7 10 10 10 11 13 15 13 14 11 12 10 8 7 5 5 4 3 2 2 2 3 3 3 3 2
5 5 5 4 5 5 5 6 7 8 9 11 14 17 16 12 11 10 11 10 7 8 11 12 12 12 11 12 11 9 9 6 5 4 4 4 3 3 3 4 4 4 4
2 3 3 3 3 4 4 4 5 7 8 10 13 15 16 18 18 15 15 13 10 7 13 12 12 11 11 11 10 9 8 8 8 5 3 3 3 3 3 3 3 3 3
6 6 5 5 5 5 4 4 5 6 7 9 11 12 14 13 12 14 14 14 12 10 12 11 11 11 11 11 10 9 8 7 7 6 5 4 3 3 3 4 3 2 3
10 9 8 7 7 6 6 6 6 7 7 8 9 10 12 12 12 12 10 9 8 8 11 11 11 11 10 10 11 8 8 8 6 5 4 3 3 3 3 3 4 4 3
12 12 10 9 8 7 7 6 6 7 8 7 8 9 10 11 12 12 12 11 11 11 13 12 12 11 10 10 9 8 8 7 5 4 5 3 2 3 3 3 3 4 5
15 13 12 10 9 8 6 6 6 5 5 6 7 9 10 10 12 12 13 12 12 14 14 14 13 12 11 9 8 7 7 7 5 4 4 3 3 3 3 3 3 4 4
14 12 10 9 8 8 7 6 6 5 5 6 7 9 10 11 11 11 12 13 14 14 14 14 13 12 11 9 9 8 6 6 5 3 2 2 2 3 3 3 4 4 5
14 11 9 7 7 8 7 6 5 3 2 5 8 10 11 11 12 12 13 14 15 14 14 13 13 12 11 10 8 7 6 5 4 2 0 2 3 4 4 5 5 5 6
12 10 8 6 5 6 6 5 4 4 4 6 8 9 10 11 12 13 14 14 15 15 14 13 13 13 12 10 9 8 7 5 4 2 1 3 4 6 6 5 7 6 6
13 11 8 4 3 4 5 5 6 7 8 9 10 10 11 13 13 14 14 14 14 15 14 15 14 12 10 8 8 7 6 4 2 2 3 4 6 7 7 6 6 6 5
13 11 8 5 5 4 5 7 9 10 11 12 12 12 14 15 15 15 15 15 15 14 14 13 13 11 8 11 10 7 4 2 1 3 4 5 6 8 10 12 13 12 8
11 10 8 6 6 6 7 9 10 11 13 13 13 14 15 16 15 16 16 15 14 14 13 11 10 9 9 10 8 6 4 1 1 3 4 4 5 8 6 10 14 13 16
9 8 7 7 8 8 9 10 11 13 14 14 14 14 15 16 15 15 15 13 12 11 9 8 7 6 6 8 6 6 4 1 1 2 3 4 5 7 9 7 7 7 8
7 7 8 8 9 9 10 12 13 13 14 14 14 14 15 15 14 14 12 10 10 8 6 5 5 5 5 6 5 5 2 1 3 4 4 5 6 13 15 9 7 8 9
7 7 8 9 10 9 10 13 13 13 13 12 13 12 13 13 13 12 10 8 7 7 5 5 4 4 3 4 3 3 3 3 4 4 5 8 11 15 16 9 8 10 10
6 7 8 8 8 8 11 12 12 12 11 11 12 11 11 11 11 10 8 7 6 6 5 5 4 3 1 1 2 3 2 2 3 4 4 6 15 17 17 16 8 13 14
6 6 7 8 7 8 10 11 11 9 10 11 11 11 10 9 8 8 7 6 6 6 5 5 4 4 4 4 5 7 7 7 3 4 5 7 17 18 18 14 15 19 15
6 6 7 8 7 7 9 11 9 9 11 11 11 10 10 8 7 7 7 6 5 5 4 3 3 2 3 5 8 9 10 12 6 6 12 15 17 16 11 14 17 13 7
6 6 7 8 8 8 9 9 9 9 11 11 10 8 8 8 7 6 5 5 4 4 3 3 2 2 3 4 4 4 5 8 8 7 9 13 13 11 12 11 9 7 7
6 7 8 8 9 8 8 8 8 9 11 10 8 8 7 7 6 5 4 4 3 3 3 2 1 1 3 5 9 7 5 5 6 6 3 4 5 6 6 6 6 6 7
8 8 8 8 8 8 8 7 7 8 10 9 7 5 5 5 5 5 5 7 5 6 4 1 1 2 5 9 11 13 14 13 12 6 4 6 6 7 8 9 9 9 8
Wind_Direction
260 261 257 251 247 245 234 219 211 209 203 198 195 194 198 197 194 193 187 181 176 171 165 161 158 156 155 154 143 125 118 110 122 104 62 14 26 102 182 190 186 194 196
266 259 254 251 243 240 237 224 215 212 206 204 200 199 198 197 194 188 184 182 176 173 171 165 167 162 151 149 152 140 131 124 123 138 126 93 326 322 8 254 195 181 152
256 256 253 251 249 245 240 234 219 214 210 206 198 186 169 148 173 186 188 185 178 175 172 170 166 166 162 167 167 156 147 149 136 141 150 157 206 248 317 354 37 128 118
253 252 250 251 248 246 244 240 232 219 210 202 195 184 187 189 191 191 187 179 178 177 173 171 168 169 167 167 170 160 152 143 151 139 105 133 143 159 242 312 344 5 118
259 257 252 248 250 250 250 249 243 231 215 204 200 199 201 195 180 171 169 172 174 176 173 171 168 168 167 166 163 157 152 147 154 155 149 126 93 113 156 246 305 324 300
285 272 270 265 267 269 266 264 257 248 227 210 204 202 198 177 165 170 174 173 168 171 174 171 168 167 165 165 162 156 154 148 143 143 145 148 151 170 166 209 251 277 291
311 305 303 297 285 286 279 266 258 259 243 218 210 206 198 183 181 179 179 174 173 177 180 172 168 166 162 157 152 148 147 143 141 143 140 134 138 139 146 167 220 259 288
333 313 296 280 274 274 274 273 264 259 248 225 214 206 194 187 186 181 177 180 182 177 169 162 158 155 154 152 145 141 137 133 134 137 135 132 137 138 150 162 165 259 291
327 314 305 295 285 276 264 255 254 256 247 226 209 196 184 177 173 169 163 160 149 148 150 149 148 148 147 145 141 139 133 131 128 134 137 135 140 135 144 150 158 180 250
319 310 303 295 287 280 274 270 257 250 241 217 197 187 177 168 161 157 157 153 148 148 149 147 146 143 140 138 132 130 129 126 126 134 142 143 145 146 157 167 175 180 199
310 303 299 296 293 290 288 285 274 262 235 204 184 167 161 153 153 156 154 150 146 147 149 146 143 140 134 130 125 122 126 127 129 136 156 173 169 178 191 191 194 204 201
303 298 293 299 303 301 301 300 282 255 224 188 165 155 147 145 146 146 145 144 143 143 142 140 136 132 126 121 122 125 123 127 132 136 149 194 204 212 214 213 223 229 225
307 302 296 297 306 314 316 315 309 277 207 148 141 138 139 139 138 138 138 137 136 134 133 131 129 124 118 113 112 114 109 102 98 94 148 253 237 241 238 235 238 242 249
314 307 295 286 306 324 334 346 7 33 77 104 117 122 124 124 125 126 127 128 127 126 123 120 117 113 110 108 108 103 93 83 68 42 317 269 247 245 245 245 245 248 255
333 328 315 309 338 356 12 34 45 52 68 83 91 98 103 107 110 112 113 113 113 113 112 110 105 103 103 104 101 95 89 77 47 341 305 287 273 264 261 258 248 243 249
337 339 344 10 25 28 42 58 64 66 74 81 86 92 98 99 99 101 101 100 100 102 102 102 102 99 102 109 106 105 102 100 343 309 306 300 291 293 300 298 295 289 281
342 353 6 23 41 52 68 74 77 80 83 87 88 90 93 94 95 96 95 95 94 93 93 95 99 102 112 117 115 115 117 98 336 314 316 321 322 328 305 295 297 295 295
356 6 23 42 50 61 73 79 82 86 88 89 91 92 94 95 94 94 94 93 94 95 98 101 107 115 131 133 130 123 114 82 326 310 304 299 299 304 298 276 274 269 278
20 29 42 56 62 67 77 84 83 86 89 90 91 93 97 98 98 97 97 97 100 99 100 110 126 135 150 156 151 142 142 237 285 285 289 303 294 305 309 305 292 285 281
41 48 54 63 67 69 80 86 85 87 88 92 94 96 99 102 103 103 100 98 101 107 114 112 118 135 153 186 194 178 176 246 276 286 291 311 315 311 313 306 295 294 290
58 62 66 68 70 76 86 88 88 88 91 94 95 93 94 98 100 99 99 104 105 103 97 91 74 69 72 263 285 301 199 242 286 301 301 301 317 314 314 315 306 300 305
74 74 75 72 69 80 92 93 90 92 94 94 93 92 92 95 99 99 95 95 99 93 85 83 68 44 23 10 348 345 342 335 315 303 293 295 311 315 319 320 311 312 321
97 91 90 85 79 83 96 100 99 102 101 96 93 91 88 86 92 98 98 90 87 92 88 89 82 39 16 360 1 349 339 331 324 297 307 311 316 323 324 315 317 323 320
108 107 102 97 90 88 92 100 104 102 100 97 93 92 91 86 77 79 88 95 99 101 102 99 79 18 350 327 307 296 305 315 309 298 307 321 326 325 319 317 317 309 298
111 108 108 106 101 97 93 95 100 105 101 96 92 86 84 87 81 76 84 102 112 132 123 135 152 333 311 308 330 334 313 304 297 325 350 336 324 322 318 314 309 307 311
118 113 110 108 103 98 93 89 94 105 108 103 93 90 89 84 81 79 61 61 68 65 68 103 293 277 310 330 340 333 332 334 337 353 335 324 320 318 318 318 317 315 311
Height
1461 1463 1465 1467 1469 1471 1473 1475 1477 1479 1482 1484 1486 1488 1491 1493 1495 1498 1500 1504 1506 1509 1511 1514 1517 1519 1521 1523 1525 1526 1527 1527 1527 1527 1526 1526 1525 1525 1525 1524 1524 1524 1523
1455 1456 1459 1461 1463 1464 1465 1467 1469 1472 1474 1476 1478 1481 1484 1486 1489 1492 1495 1498 1501 1504 1506 1509 1512 1515 1517 1520 1521 1523 1523 1524 1524 1524 1523 1523 1524 1522 1522 1522 1521 1521 1520
1447 1449 1452 1454 1456 1457 1459 1461 1462 1464 1467 1469 1473 1476 1479 1481 1483 1486 1489 1492 1494 1497 1500 1504 1507 1510 1513 1515 1517 1519 1520 1521 1521 1521 1521 1520 1519 1520 1519 1519 1518 1518 1517
1442 1443 1445 1447 1449 1451 1453 1454 1455 1457 1459 1462 1464 1466 1468 1470 1473 1478 1482 1485 1488 1492 1495 1498 1501 1504 1507 1510 1513 1515 1516 1517 1517 1517 1517 1517 1516 1516 1516 1516 1515 1514 1514
1440 1441 1442 1443 1444 1445 1446 1447 1448 1449 1451 1454 1456 1458 1461 1464 1468 1472 1475 1479 1482 1485 1488 1492 1495 1498 1501 1505 1508 1510 1511 1512 1513 1513 1513 1512 1512 1512 1512 1511 1511 1511 1510
1438 1439 1439 1440 1440 1440 1440 1441 1441 1442 1444 1446 1447 1449 1452 1456 1460 1463 1467 1471 1475 1478 1482 1485 1489 1492 1495 1499 1502 1505 1506 1508 1509 1509 1509 1508 1508 1507 1507 1506 1505 1505 1504
1438 1437 1437 1437 1436 1436 1435 1435 1435 1436 1437 1438 1439 1441 1444 1447 1451 1456 1460 1464 1467 1471 1474 1478 1481 1485 1489 1493 1496 1499 1501 1503 1504 1504 1504 1503 1503 1503 1502 1501 1500 1498 1496
1438 1436 1435 1434 1432 1431 1431 1431 1430 1430 1431 1432 1432 1434 1436 1439 1444 1449 1453 1457 1461 1464 1468 1471 1475 1479 1484 1487 1490 1493 1496 1498 1499 1499 1499 1499 1498 1498 1497 1496 1495 1492 1489
1437 1435 1432 1430 1428 1426 1426 1425 1425 1425 1425 1425 1426 1426 1428 1432 1436 1441 1446 1450 1454 1458 1461 1465 1470 1474 1478 1482 1485 1488 1490 1493 1494 1495 1495 1495 1494 1493 1493 1491 1490 1489 1484
1434 1431 1428 1425 1423 1421 1420 1419 1419 1419 1418 1419 1419 1420 1422 1425 1430 1435 1439 1444 1448 1451 1456 1460 1465 1469 1473 1477 1480 1484 1486 1488 1490 1491 1491 1491 1490 1489 1488 1486 1485 1482 1480
1431 1427 1423 1421 1418 1416 1415 1414 1413 1413 1413 1413 1414 1415 1417 1420 1425 1429 1434 1438 1442 1447 1451 1455 1460 1465 1469 1473 1477 1480 1482 1484 1486 1487 1487 1487 1486 1485 1483 1481 1479 1477 1474
1426 1421 1418 1416 1413 1411 1410 1408 1408 1407 1407 1408 1409 1410 1413 1416 1421 1425 1429 1433 1438 1442 1446 1451 1456 1461 1466 1470 1474 1477 1479 1481 1483 1483 1483 1482 1481 1480 1478 1476 1474 1471 1468
1420 1416 1413 1411 1409 1407 1406 1404 1404 1403 1403 1403 1404 1406 1409 1413 1417 1421 1425 1430 1434 1438 1443 1448 1453 1459 1463 1468 1471 1474 1476 1478 1479 1479 1478 1477 1476 1475 1473 1470 1468 1465 1462
1417 1412 1408 1407 1406 1405 1403 1402 1401 1400 1399 1400 1401 1403 1406 1410 1414 1418 1423 1427 1431 1436 1440 1446 1452 1457 1462 1466 1469 1472 1474 1475 1475 1474 1473 1472 1471 1470 1467 1465 1462 1459 1455
1415 1410 1406 1404 1403 1403 1402 1400 1399 1398 1398 1399 1400 1402 1405 1408 1413 1417 1421 1425 1430 1435 1440 1445 1451 1456 1461 1465 1468 1470 1470 1470 1469 1469 1468 1467 1466 1464 1462 1459 1456 1453 1449
1415 1410 1406 1404 1403 1402 1401 1400 1399 1399 1399 1400 1401 1403 1405 1409 1413 1417 1421 1425 1431 1436 1442 1447 1452 1457 1460 1463 1465 1466 1466 1466 1465 1465 1464 1463 1461 1458 1456 1453 1451 1448 1445
1415 1411 1408 1406 1404 1403 1402 1402 1402 1402 1402 1403 1403 1405 1408 1411 1415 1419 1423 1429 1434 1440 1445 1450 1455 1458 1459 1461 1462 1462 1463 1462 1462 1461 1460 1458 1455 1452 1449 1447 1444 1441 1438
1415 1413 1410 1408 1407 1406 1405 1405 1405 1405 1406 1407 1408 1410 1412 1415 1419 1423 1428 1434 1439 1445 1449 1452 1455 1457 1458 1458 1459 1460 1460 1460 1459 1457 1454 1452 1449 1446 1443 1440 1437 1434 1432
1417 1414 1412 1411 1410 1409 1408 1408 1408 1409 1409 1411 1412 1415 1417 1420 1424 1429 1434 1439 1443 1447 1451 1453 1455 1456 1457 1457 1457 1457 1457 1456 1455 1452 1450 1446 1443 1440 1437 1435 1431 1428 1425
1418 1416 1415 1413 1412 1412 1412 1411 1412 1413 1414 1415 1417 1420 1423 1426 1430 1434 1439 1443 1446 1449 1451 1453 1455 1456 1456 1456 1456 1454 1453 1452 1450 1447 1445 1441 1438 1435 1433 1430 1426 1421 1417
1420 1419 1418 1416 1416 1416 1416 1416 1416 1417 1419 1421 1423 1426 1429 1432 1436 1439 1443 1446 1448 1450 1452 1454 1454 1455 1455 1454 1453 1451 1449 1447 1444 1441 1439 1436 1432 1430 1427 1424 1420 1416 1413
1422 1422 1421 1420 1420 1420 1420 1420 1421 1423 1425 1427 1429 1432 1435 1438 1441 1444 1446 1448 1450 1452 1453 1453 1453 1453 1453 1451 1450 1448 1446 1443 1440 1437 1434 1430 1428 1425 1422 1418 1414 1411 1407
1426 1425 1425 1424 1424 1425 1426 1426 1427 1429 1431 1433 1435 1438 1440 1443 1445 1447 1449 1450 1452 1452 1452 1452 1452 1451 1450 1448 1446 1444 1441 1439 1436 1432 1429 1427 1424 1420 1416 1413 1410 1406 1402
1429 1429 1429 1429 1429 1430 1431 1432 1433 1435 1437 1439 1441 1443 1445 1447 1448 1450 1451 1452 1452 1452 1451 1451 1449 1448 1446 1444 1442 1440 1437 1434 1431 1428 1425 1422 1419 1415 1412 1409 1406 1402 1399
1432 1433 1433 1433 1434 1435 1436 1438 1439 1441 1442 1444 1445 1447 1448 1450 1450 1451 1452 1451 1451 1451 1450 1448 1447 1445 1443 1441 1440 1437 1434 1431 1428 1424 1421 1417 1414 1411 1407 1404 1401 1398 1395
1434 1435 1437 1437 1438 1440 1441 1442 1444 1446 1447 1448 1449 1450 1451 1452 1452 1452 1452 1451 1450 1449 1447 1446 1444 1442 1441 1439 1436 1433 1430 1427 1424 1420 1417 1414 1410 1407 1403 1400 1397 1394 1391